Location: Unspecified
(35.7250°N, 0.0000°E)
Time: 04:53:44
(UTC+00:00)

Tiros 1 - Pass Details

Date: 28 June 2019
Orbit: 630 x 664 km, 48.4° (Epoch: 19 July)

Event Time Altitude Azimuth Distance (km) Brightness Sun altitude
Rises 00:17:45 0° 302° (WNW) 2,950 10.9 -30.9°
Reaches altitude 10° 00:20:50 10° 323° (NW) 2,032 10.2 -30.8°
Maximum altitude 00:23:55 17° 4° (N) 1,603 9.9 -30.8°
Drops below altitude 10° 00:26:59 10° 46° (NE) 2,019 10.2 -30.7°
Sets 00:30:02 0° 67° (ENE) 2,921 10.9 -30.6°
